Location: Bieujac
(44.5398°N, 0.1549°W)
Time: 16:25:04
(UTC+00:00)

COSMOS 2487 - Pass Details

Date: 17 November 2019
Orbit: 443 x 448 km, 74.7° (Epoch: 11 December)

Event Time Altitude Azimuth Distance (km) Brightness Sun altitude
Rises 06:15:28 0° 222° (SW) 2,427 5.9 -8.0°
Reaches altitude 10° 06:17:43 10° 234° (SW) 1,562 4.8 -7.6°
Maximum altitude 06:20:45 29° 296° (WNW) 852 3.2 -7.1°
Drops below altitude 10° 06:23:49 10° 359° (N) 1,574 4.9 -6.6°
Sets 06:26:06 0° 11° (N) 2,451 6.0 -6.2°
